Wetbulb
53.76 53.82 53.83 54.10 53.92 53.80 53.72 53.71 53.60 54.06 54.64 54.88 55.29 55.52 55.75 55.69 55.12 53.25 48.65 52.06 54.01 59.13 57.84 52.68 49.72 50.02 50.00 49.80 52.94 57.01 48.96 45.36 47.32 47.49 49.00 53.77 52.02 55.35 57.13 55.29 55.91 56.94 57.07 58.22 60.13
54.86 54.94 54.79 54.68 54.31 54.25 53.95 53.42 53.47 53.46 54.23 54.71 54.99 55.27 55.40 55.07 52.84 50.31 55.85 55.66 57.22 58.34 50.18 48.32 47.36 48.40 46.98 47.59 50.73 50.91 46.83 47.15 51.85 52.44 51.47 52.87 52.68 53.46 52.74 53.78 54.14 55.22 57.14 58.33 58.50
54.66 54.69 54.59 54.71 54.49 54.19 53.79 53.48 53.36 53.34 53.42 54.30 54.38 54.50 54.38 55.10 49.19 49.37 59.11 58.49 57.99 59.43 52.09 49.67 49.32 48.99 44.95 47.34 47.76 48.59 45.39 49.89 52.18 53.78 53.82 52.72 50.99 53.20 51.05 50.53 54.09 52.32 54.38 55.69 57.47
54.46 54.72 54.70 54.27 54.58 54.27 53.87 53.45 53.26 53.21 53.34 53.25 54.02 54.02 54.94 53.42 41.17 53.12 61.81 60.00 61.01 56.33 50.88 48.45 47.66 45.72 44.14 43.25 46.54 43.60 46.87 48.83 50.87 52.71 51.07 51.48 49.85 49.30 50.28 51.40 53.15 53.47 54.34 55.80 55.78
54.40 54.14 54.06 54.06 53.96 54.16 54.05 53.49 53.09 52.55 52.29 52.62 53.69 53.94 53.22 47.75 49.28 57.18 62.22 61.15 57.70 52.63 50.66 49.03 46.19 45.33 42.82 43.58 44.26 43.94 44.97 46.06 47.61 47.53 48.36 48.95 48.91 48.51 48.87 50.57 51.74 53.04 53.78 53.83 54.87
53.70 53.50 53.45 53.41 53.58 53.68 53.61 53.10 52.48 52.12 51.76 52.27 53.39 54.46 50.62 42.04 53.96 57.40 59.49 57.31 55.40 52.54 51.65 50.61 48.09 48.03 44.78 44.15 43.58 44.32 44.32 44.96 45.86 46.66 46.46 45.97 47.26 47.67 49.16 50.81 50.69 51.95 52.54 53.64 54.61
52.73 52.25 52.42 52.41 52.70 53.20 53.16 52.41 52.24 52.28 52.91 53.64 53.90 53.78 48.00 43.70 54.06 54.75 57.67 55.93 56.57 54.06 49.82 51.93 51.18 46.51 46.34 43.23 45.23 44.15 41.78 43.60 44.49 45.73 45.34 46.44 43.97 44.83 47.40 49.53 48.73 50.15 51.01 51.83 52.71
52.50 52.08 52.33 52.04 52.30 52.74 52.72 52.58 52.30 52.99 53.70 54.10 54.89 53.43 44.48 50.93 54.26 54.44 54.82 53.78 54.66 55.97 53.07 51.96 50.72 47.15 45.79 45.59 43.26 41.15 40.74 38.22 42.11 43.18 44.73 45.16 41.38 45.29 47.28 47.47 47.05 48.13 49.54 50.39 52.40
52.97 52.70 51.99 52.03 52.30 52.64 52.68 52.70 53.69 53.99 54.21 54.77 52.78 49.09 46.25 56.80 52.25 52.21 53.30 48.84 49.38 50.77 52.08 50.70 48.82 45.05 44.51 41.55 39.57 39.44 35.65 36.95 39.65 44.36 44.00 43.24 40.86 44.49 47.19 46.66 46.50 47.80 48.59 49.57 51.16
52.14 52.20 51.39 51.64 52.10 52.58 52.90 52.20 54.67 55.85 54.83 55.01 53.51 46.78 50.07 48.82 53.11 52.50 51.15 49.39 47.64 47.38 46.17 46.14 45.36 42.60 42.06 40.30 34.55 35.51 36.12 37.39 37.79 41.66 43.55 41.83 41.41 44.45 46.27 45.63 45.91 46.99 47.54 48.95 50.46
51.30 50.97 51.08 51.35 51.83 52.67 51.51 50.74 48.03 46.05 50.91 45.55 46.25 45.81 47.44 52.24 52.85 48.98 50.25 48.37 47.70 45.71 40.86 42.31 40.38 37.97 39.93 41.00 40.47 38.94 37.48 36.66 39.43 42.18 41.53 41.12 41.21 42.99 45.48 45.46 45.38 45.88 47.15 48.50 49.05
50.96 50.80 51.18 51.41 51.81 52.43 49.26 48.98 47.94 48.70 43.14 47.07 47.37 48.09 50.14 51.03 45.85 49.24 50.56 45.22 43.88 40.35 40.87 39.82 37.49 41.31 41.50 40.52 39.11 38.50 36.92 36.82 40.39 42.44 41.26 40.67 40.00 42.78 44.36 45.21 46.49 46.49 46.50 47.36 48.39
50.43 50.79 51.01 51.43 51.70 49.83 48.89 49.18 51.32 48.83 42.80 44.55 46.36 46.15 47.06 49.26 45.31 46.23 47.98 45.54 42.62 39.40 39.11 37.12 39.23 41.59 40.60 39.52 38.46 38.13 37.39 37.32 36.67 39.90 41.10 39.68 37.67 39.65 42.75 44.27 45.61 46.76 47.39 47.45 47.28
50.56 50.96 51.11 51.01 49.17 48.80 49.31 50.66 50.92 49.33 40.26 41.67 44.10 46.65 47.45 47.58 43.47 49.35 48.82 46.44 41.84 39.53 38.65 38.78 40.90 40.04 39.08 38.43 40.66 36.22 41.48 39.44 37.56 36.21 32.32 38.88 30.63 37.49 40.43 41.77 43.78 45.82 47.77 48.79 48.88
50.73 51.55 51.39 50.15 49.36 49.50 50.35 50.77 50.84 50.00 29.91 43.44 43.28 49.56 46.60 44.24 44.66 45.46 48.67 45.44 41.34 40.53 39.82 37.82 38.92 38.71 37.88 38.97 41.64 37.50 41.65 39.18 38.09 36.57 34.68 35.10 32.23 36.72 39.83 39.38 42.41 44.87 46.64 49.71 50.49
51.20 51.35 50.49 49.79 49.00 50.86 49.93 50.27 51.25 39.56 29.22 38.71 42.58 41.47 41.95 42.95 43.11 45.48 45.15 46.40 44.63 41.09 40.37 40.36 42.05 40.77 40.40 42.38 41.91 41.90 39.21 37.06 36.32 35.65 29.37 33.16 32.83 34.08 37.27 40.01 42.38 44.47 46.21 48.28 50.62
50.76 50.84 49.89 49.15 48.33 49.85 50.34 49.44 39.20 32.98 40.13 36.71 37.92 41.16 39.80 40.60 41.52 42.54 41.41 40.16 38.45 34.71 35.18 38.14 37.99 41.23 43.44 39.43 40.83 39.64 36.28 30.41 28.32 28.34 28.63 34.14 32.05 34.98 40.12 42.58 43.67 43.69 45.58 48.21 50.60
49.78 49.28 50.37 50.40 52.00 51.02 49.56 43.93 32.99 36.53 35.68 41.08 40.18 40.63 37.58 40.64 40.46 41.05 39.70 38.03 41.47 38.15 35.80 33.38 31.32 38.75 42.90 39.89 37.71 37.22 36.50 31.19 21.85 25.11 28.99 33.91 29.62 36.11 41.66 43.88 45.11 46.05 47.58 48.84 48.76
48.70 50.17 51.02 52.00 52.06 49.26 46.42 37.33 35.87 37.17 40.06 38.54 39.80 35.87 36.71 39.41 39.39 39.31 38.90 38.50 40.36 41.20 34.65 33.24 32.60 40.11 41.38 42.04 41.05 35.70 33.72 37.06 31.71 30.61 27.82 31.92 35.27 39.58 42.33 42.62 43.77 44.82 46.56 46.95 48.23
46.81 48.64 50.49 50.88 50.32 49.14 43.12 37.25 38.84 42.53 41.67 40.33 34.09 37.06 33.81 36.22 36.47 37.12 37.05 40.85 39.84 42.45 42.64 37.82 31.55 38.74 39.70 41.51 40.37 38.97 39.88 31.31 33.26 23.54 22.23 29.54 31.05 32.99 38.13 40.03 42.62 44.49 45.11 46.57 48.43
47.30 46.89 50.97 49.46 50.89 45.95 38.79 38.28 40.74 44.68 43.08 39.73 37.20 36.14 36.88 36.03 37.33 36.33 36.67 40.19 42.45 41.37 42.80 38.27 34.79 34.76 38.00 35.74 35.03 36.14 34.75 34.85 34.28 32.23 25.61 24.36 30.74 39.54 39.50 41.70 42.19 43.68 45.36 46.23 48.12
45.58 42.07 50.09 49.15 43.19 37.74 38.68 38.58 40.50 41.38 43.77 42.09 41.00 39.57 37.43 37.47 36.27 36.25 35.62 38.73 43.83 43.10 37.65 39.25 36.71 32.01 33.75 39.06 40.09 38.46 36.86 36.95 30.19 28.16 31.63 30.41 30.58 42.32 42.89 43.08 43.51 44.51 46.01 47.51 48.89
41.97 42.57 49.56 48.11 37.99 36.71 37.62 37.87 39.44 39.65 40.59 40.27 38.76 39.73 39.58 37.20 34.08 36.79 37.95 41.05 42.20 42.00 38.22 40.04 34.89 28.68 29.99 33.67 36.91 34.86 36.60 37.40 36.69 34.42 30.28 27.48 31.44 42.01 42.80 43.87 45.07 44.91 46.08 47.18 48.30
40.95 37.43 40.67 40.92 38.90 35.86 33.41 34.10 36.50 41.50 39.86 39.78 38.82 39.53 37.34 35.71 38.43 35.33 35.99 39.70 41.15 40.65 41.97 41.56 36.27 32.36 27.34 31.13 34.66 32.57 35.12 36.84 35.93 30.95 31.64 32.11 34.35 38.93 41.35 42.42 44.47 45.47 46.62 47.32 47.50
39.57 36.12 36.92 33.21 34.49 35.16 35.34 34.83 34.26 34.77 39.06 39.53 37.01 36.00 34.54 32.20 33.84 33.75 36.69 37.41 39.29 41.35 40.87 39.52 31.69 34.06 35.31 36.33 36.44 35.29 35.20 35.97 34.38 35.33 30.98 33.80 34.26 38.79 41.83 43.42 44.63 46.22 46.34 46.05 46.55
37.81 36.64 37.76 35.72 35.34 34.28 34.48 33.64 33.26 34.54 34.97 34.08 34.36 36.16 36.18 32.89 34.39 32.00 34.92 35.25 34.77 38.97 38.10 39.48 32.74 34.65 32.56 35.69 35.95 33.87 35.38 35.78 35.81 36.08 35.91 36.30 35.78 42.75 44.70 45.59 44.72 45.02 45.38 45.36 46.00
39.74 40.30 39.58 34.08 33.31 32.78 32.86 33.89 33.76 35.13 36.41 38.02 36.94 34.81 33.16 35.09 38.34 39.35 39.73 39.14 38.52 36.42 36.16 35.59 34.55 31.84 27.51 33.30 33.30 28.99 34.35 35.94 36.84 38.61 37.95 34.47 39.82 44.23 42.82 43.32 44.08 44.70 45.09 45.27 45.83
MSLP
1019.87 1019.47 1019.06 1018.73 1018.40 1018.09 1017.75 1017.47 1017.20 1016.95 1016.60 1016.36 1016.11 1015.83 1015.50 1015.11 1014.71 1014.31 1013.34 1011.64 1011.62 1011.28 1011.44 1011.18 1010.94 1010.74 1010.70 1010.34 1010.14 1009.97 1009.33 1008.46 1008.52 1008.22 1007.77 1007.70 1007.33 1007.26 1007.21 1007.05 1006.67 1006.38 1006.23 1006.35 1005.99
1019.68 1019.32 1018.94 1018.57 1018.24 1017.89 1017.51 1017.23 1016.96 1016.66 1016.38 1016.13 1015.91 1015.62 1015.28 1014.93 1014.29 1013.14 1011.31 1011.31 1011.38 1011.31 1011.16 1010.91 1010.72 1010.68 1010.47 1010.23 1009.93 1009.44 1008.72 1008.18 1008.16 1007.77 1007.42 1007.46 1007.40 1007.51 1007.39 1006.91 1006.35 1006.27 1006.42 1006.28 1005.74
1019.51 1019.09 1018.68 1018.34 1017.94 1017.58 1017.26 1016.94 1016.68 1016.42 1016.18 1015.93 1015.69 1015.46 1015.16 1014.67 1013.62 1011.12 1010.58 1011.10 1011.30 1011.35 1011.28 1011.14 1010.85 1010.51 1010.30 1010.22 1009.92 1009.34 1008.54 1008.45 1007.84 1007.69 1007.63 1007.42 1007.24 1007.33 1007.05 1006.71 1006.44 1006.29 1006.02 1005.84 1005.62
1019.40 1018.92 1018.52 1018.12 1017.73 1017.34 1016.93 1016.63 1016.39 1016.17 1015.94 1015.77 1015.50 1015.24 1014.80 1014.29 1012.53 1010.75 1010.69 1010.94 1011.13 1011.35 1011.31 1011.08 1010.84 1010.51 1010.30 1009.98 1009.81 1009.47 1009.09 1008.55 1007.93 1007.70 1007.67 1007.26 1007.48 1006.87 1006.77 1006.59 1006.73 1006.72 1006.43 1005.96 1005.53
1019.26 1018.77 1018.32 1017.90 1017.49 1017.06 1016.64 1016.27 1016.07 1015.89 1015.78 1015.61 1015.31 1015.05 1014.53 1013.46 1011.36 1010.63 1010.83 1010.98 1011.22 1011.28 1011.08 1010.91 1010.57 1010.38 1010.05 1010.07 1010.04 1009.50 1009.10 1008.79 1008.44 1008.09 1007.72 1007.64 1006.85 1006.76 1006.18 1006.54 1006.66 1006.67 1006.30 1005.82 1005.35
1019.10 1018.59 1018.09 1017.56 1017.11 1016.70 1016.26 1015.92 1015.68 1015.56 1015.51 1015.39 1015.11 1014.89 1014.43 1012.52 1010.61 1010.52 1010.80 1011.11 1011.00 1011.00 1010.89 1010.87 1010.42 1010.25 1010.22 1010.09 1009.78 1009.61 1009.38 1008.98 1008.55 1008.08 1007.78 1007.47 1006.68 1007.04 1006.41 1006.62 1006.84 1006.71 1006.28 1005.83 1005.34
1018.71 1018.33 1017.80 1017.21 1016.73 1016.29 1015.90 1015.59 1015.30 1015.19 1015.09 1015.03 1014.89 1014.66 1013.96 1011.53 1010.52 1010.77 1010.81 1010.65 1010.70 1010.67 1010.48 1010.63 1010.59 1010.40 1010.35 1010.13 1010.03 1009.81 1009.60 1009.06 1008.49 1008.04 1007.65 1007.52 1006.78 1006.71 1007.40 1007.12 1006.85 1006.94 1006.69 1006.04 1005.56
1018.44 1017.97 1017.42 1016.83 1016.36 1015.89 1015.47 1015.07 1014.80 1014.67 1014.65 1014.80 1014.67 1014.38 1012.42 1010.57 1010.49 1010.51 1010.50 1010.35 1010.54 1010.60 1010.55 1010.41 1010.44 1010.35 1010.25 1010.39 1010.28 1010.03 1009.78 1008.58 1008.04 1007.98 1007.72 1007.73 1006.09 1006.98 1007.53 1007.16 1007.49 1007.12 1006.89 1006.10 1005.82
1018.11 1017.63 1017.06 1016.48 1015.95 1015.39 1014.85 1014.42 1013.98 1013.83 1014.23 1014.53 1014.51 1013.84 1011.27 1010.06 1010.08 1009.67 1009.78 1009.74 1009.99 1010.27 1010.44 1010.29 1010.22 1010.41 1010.42 1010.09 1009.97 1010.00 1009.05 1008.82 1008.50 1008.56 1008.15 1007.79 1006.97 1007.27 1007.81 1007.75 1007.46 1007.40 1006.94 1006.49 1005.96
1017.81 1017.26 1016.67 1016.10 1015.58 1015.01 1014.34 1013.93 1013.86 1013.75 1014.26 1014.29 1013.90 1013.62 1010.98 1010.13 1009.68 1009.48 1009.40 1009.64 1009.64 1009.91 1010.09 1010.24 1010.29 1010.26 1010.33 1009.94 1009.30 1009.40 1009.30 1009.16 1008.73 1008.79 1008.38 1007.93 1007.66 1007.39 1007.38 1007.52 1007.55 1007.19 1006.82 1006.70 1006.35
1017.50 1016.91 1016.29 1015.69 1015.20 1014.88 1014.29 1013.97 1014.05 1013.85 1013.71 1012.81 1012.35 1011.78 1010.84 1010.24 1009.74 1009.32 1009.18 1009.37 1009.56 1009.75 1009.84 1010.31 1010.09 1009.63 1009.62 1009.77 1009.78 1009.82 1009.65 1009.35 1009.11 1009.09 1008.68 1007.90 1007.56 1007.24 1007.02 1006.94 1007.09 1007.09 1006.95 1006.67 1006.52
1017.14 1016.52 1015.89 1015.35 1014.85 1014.60 1014.59 1013.77 1013.86 1013.81 1012.92 1011.73 1011.53 1011.19 1010.67 1010.45 1009.95 1009.16 1009.14 1009.36 1009.45 1009.56 1010.04 1010.24 1009.60 1009.54 1009.72 1009.84 1009.92 1009.94 1009.74 1009.60 1009.52 1009.20 1008.99 1007.92 1007.18 1006.76 1006.21 1006.06 1006.18 1006.61 1006.98 1006.98 1006.76
1016.76 1016.21 1015.67 1015.09 1014.61 1014.28 1014.11 1013.87 1013.77 1013.59 1012.87 1011.25 1010.72 1010.31 1009.94 1010.13 1009.65 1009.06 1009.04 1009.04 1009.18 1009.51 1009.72 1009.68 1009.49 1009.58 1009.52 1009.62 1009.68 1009.83 1009.76 1009.89 1009.88 1009.69 1009.29 1008.64 1006.71 1006.43 1005.99 1006.06 1006.17 1006.44 1006.87 1006.94 1006.93
1016.29 1015.62 1015.15 1014.84 1014.78 1014.56 1014.00 1013.83 1013.54 1013.40 1012.42 1010.92 1010.09 1009.46 1009.73 1009.63 1009.19 1008.58 1008.59 1008.70 1009.18 1009.27 1009.72 1009.65 1009.50 1009.48 1009.45 1009.39 1009.55 1009.61 1009.91 1010.11 1010.21 1010.06 1009.27 1009.38 1007.31 1006.74 1006.35 1006.00 1006.16 1006.31 1006.37 1006.51 1006.69
1016.05 1015.32 1014.81 1014.71 1014.53 1014.18 1014.06 1013.63 1013.32 1013.24 1011.96 1010.49 1009.50 1009.07 1009.30 1009.37 1008.91 1008.37 1008.46 1008.63 1008.73 1009.12 1009.75 1009.37 1009.31 1009.30 1009.23 1009.17 1009.62 1009.71 1010.16 1010.37 1010.40 1010.07 1009.95 1008.89 1008.49 1006.68 1006.62 1005.91 1005.86 1006.00 1006.11 1006.28 1006.60
1015.64 1015.00 1014.84 1014.86 1014.64 1013.90 1013.75 1013.45 1013.22 1012.86 1011.30 1010.13 1009.58 1009.37 1009.38 1009.23 1009.03 1008.67 1008.60 1008.74 1008.96 1009.18 1009.49 1009.30 1009.54 1009.36 1009.06 1009.44 1009.71 1010.15 1010.42 1010.71 1010.83 1010.46 1009.51 1008.75 1008.41 1006.51 1006.00 1005.72 1005.74 1005.53 1005.94 1006.25 1006.38
1015.57 1014.94 1014.67 1014.50 1014.09 1013.68 1013.49 1013.23 1013.05 1012.18 1011.39 1010.75 1010.13 1009.97 1009.96 1009.54 1009.29 1009.20 1009.06 1009.00 1009.17 1009.32 1009.34 1009.34 1009.33 1009.33 1009.36 1009.43 1010.06 1010.13 1010.37 1010.13 1010.11 1009.92 1009.01 1009.20 1008.36 1006.51 1006.00 1005.89 1005.89 1005.82 1005.75 1006.05 1006.40
1015.33 1014.84 1014.60 1014.09 1013.88 1013.74 1013.25 1013.08 1012.64 1011.95 1011.42 1011.04 1010.59 1010.24 1010.04 1009.85 1009.76 1009.69 1009.64 1009.50 1009.68 1009.74 1009.63 1009.51 1009.46 1009.39 1009.45 1009.36 1009.40 1010.06 1010.42 1010.65 1010.23 1009.85 1009.15 1009.36 1007.23 1005.92 1005.97 1005.96 1005.89 1005.97 1006.14 1006.15 1006.09
1015.00 1014.66 1014.29 1013.99 1013.89 1013.80 1013.45 1012.91 1012.17 1011.95 1011.78 1011.41 1010.93 1010.50 1010.24 1010.37 1010.44 1010.17 1010.01 1009.90 1010.02 1010.26 1010.43 1010.20 1009.83 1009.85 1009.82 1009.86 1009.99 1010.65 1010.78 1011.30 1010.95 1011.08 1010.23 1008.08 1006.73 1006.44 1005.50 1005.70 1005.64 1005.77 1005.78 1005.77 1005.69
1015.44 1014.74 1014.08 1013.83 1013.79 1013.75 1013.54 1013.03 1012.64 1012.21 1011.97 1011.72 1011.31 1010.97 1010.68 1010.68 1010.77 1010.66 1010.34 1010.21 1010.24 1010.71 1011.06 1011.78 1011.13 1010.51 1010.55 1010.38 1010.77 1010.62 1010.99 1011.58 1011.69 1010.98 1009.53 1007.55 1006.53 1005.38 1005.39 1005.28 1005.41 1005.49 1005.51 1005.67 1005.64
1015.59 1014.78 1013.97 1013.77 1013.63 1013.71 1013.85 1013.58 1012.91 1012.28 1012.14 1011.89 1011.49 1011.30 1011.11 1011.07 1011.12 1010.95 1010.60 1010.47 1010.53 1011.01 1011.65 1012.92 1013.00 1011.50 1011.43 1010.86 1010.59 1011.00 1010.88 1011.51 1011.76 1011.48 1010.13 1008.14 1005.68 1005.59 1005.43 1005.45 1005.55 1005.65 1005.71 1005.67 1005.51
1016.20 1015.11 1014.10 1013.83 1014.18 1015.04 1014.50 1014.26 1013.63 1012.52 1011.98 1011.81 1011.75 1011.62 1011.57 1011.49 1011.35 1011.21 1010.91 1010.71 1010.85 1011.19 1011.79 1013.07 1012.67 1011.55 1010.88 1010.80 1010.84 1010.67 1010.54 1010.84 1011.15 1010.91 1010.41 1009.30 1005.56 1005.38 1005.28 1005.52 1005.73 1005.56 1005.43 1005.41 1005.29
1017.24 1016.18 1014.52 1014.16 1014.96 1015.38 1015.26 1014.73 1014.01 1013.18 1012.67 1012.37 1012.18 1012.21 1012.31 1012.17 1012.01 1011.53 1011.36 1011.39 1011.31 1011.37 1011.97 1012.54 1012.92 1012.04 1011.13 1011.33 1011.16 1010.88 1010.75 1010.68 1010.79 1010.83 1009.59 1008.83 1005.13 1005.42 1005.30 1005.20 1005.40 1005.18 1005.08 1005.13 1005.03
1017.91 1017.20 1016.13 1016.02 1016.71 1016.44 1016.24 1015.38 1014.54 1013.85 1013.48 1013.45 1013.11 1013.00 1012.93 1012.65 1012.51 1012.02 1011.85 1011.76 1011.90 1012.21 1012.47 1012.88 1012.47 1011.89 1011.15 1010.56 1010.90 1010.70 1010.50 1010.53 1010.32 1009.58 1008.97 1007.24 1004.81 1005.54 1004.94 1004.86 1004.70 1004.85 1004.83 1004.86 1004.62
1018.62 1019.02 1019.00 1017.77 1017.30 1017.23 1017.05 1016.26 1015.47 1014.78 1014.44 1014.19 1013.87 1014.01 1014.01 1013.51 1013.09 1012.68 1012.43 1012.31 1012.23 1012.21 1012.27 1012.55 1012.23 1012.07 1011.16 1010.63 1010.34 1009.87 1009.54 1009.36 1009.01 1008.57 1008.07 1006.43 1005.60 1004.82 1004.44 1004.38 1004.37 1004.47 1004.58 1004.36 1004.03
1019.69 1019.81 1019.56 1018.68 1018.27 1017.78 1017.14 1016.47 1016.06 1015.78 1015.55 1014.78 1014.57 1014.54 1014.60 1014.16 1013.65 1013.18 1013.02 1012.87 1012.61 1012.34 1012.35 1012.62 1012.09 1011.70 1010.74 1010.45 1009.93 1009.04 1008.40 1007.78 1007.41 1007.17 1006.57 1005.93 1004.91 1004.27 1004.27 1004.13 1004.21 1004.06 1004.08 1003.83 1003.40
1020.58 1020.55 1020.14 1018.75 1018.28 1017.94 1017.12 1016.77 1016.56 1016.59 1015.60 1015.27 1015.11 1015.01 1014.60 1013.88 1013.56 1013.21 1013.19 1013.08 1012.96 1012.85 1012.57 1012.75 1012.33 1011.94 1010.48 1010.16 1009.47 1008.07 1006.23 1005.87 1005.63 1005.77 1005.43 1004.59 1003.79 1003.68 1003.84 1003.87 1003.86 1003.74 1003.64 1003.21 1002.78
Wind_Speed
16 16 16 15 15 15 15 14 14 15 14 14 14 14 15 15 14 7 7 4 5 9 3 3 2 3 3 4 3 3 8 11 15 14 9 6 3 4 4 10 4 2 8 12 15
16 16 15 15 15 15 15 15 15 14 14 14 14 14 14 14 10 8 8 6 9 5 1 2 4 5 4 5 6 8 9 14 8 13 9 4 2 6 5 11 10 8 8 11 16
17 17 17 17 17 17 16 16 15 14 14 14 13 14 13 10 4 2 5 9 8 3 2 1 2 2 4 4 6 6 12 8 9 8 7 9 5 4 3 11 11 14 18 18 13
18 18 17 17 18 18 17 16 15 14 13 12 12 13 13 3 2 2 9 11 8 5 3 4 4 6 4 7 4 7 7 11 11 9 5 13 8 7 9 9 12 14 18 10 13
18 19 19 18 18 17 16 16 15 13 12 11 10 10 4 2 5 1 10 11 7 5 2 3 6 4 5 4 4 6 5 5 6 8 11 9 17 16 12 8 12 12 13 15 12
18 19 19 20 19 18 17 15 14 12 10 9 6 5 2 4 3 3 9 8 5 4 3 4 2 3 2 3 5 3 4 7 6 9 6 11 18 8 3 6 8 9 11 9 6
21 21 21 21 20 18 16 16 14 12 10 7 3 1 1 9 4 3 7 5 4 5 2 4 3 3 3 3 1 1 7 7 10 11 11 8 18 14 4 1 2 7 6 7 9
22 22 21 21 21 19 18 17 15 13 9 6 4 2 7 4 3 7 6 5 4 7 5 3 4 1 3 4 2 3 3 6 3 2 5 11 11 9 7 8 5 4 7 8 9
21 20 22 22 21 20 19 17 12 6 7 7 4 2 5 4 3 2 6 3 5 4 3 2 2 1 2 2 3 2 4 4 3 4 3 5 5 2 5 6 8 5 6 6 9
21 20 23 22 21 21 20 6 4 10 6 5 2 4 4 2 3 3 3 3 2 4 3 2 2 4 3 5 4 3 3 2 5 1 6 6 7 8 11 6 7 8 7 6 6
22 23 22 22 21 17 8 2 1 2 3 5 1 4 5 7 3 2 1 3 2 3 3 1 6 7 6 10 3 2 3 4 3 1 9 10 13 12 13 11 10 9 8 5 6
23 22 21 20 20 16 2 3 2 3 6 6 9 8 7 2 4 4 3 3 3 4 2 4 7 5 4 3 6 6 5 5 5 5 7 13 17 15 14 9 8 6 5 9 7
23 21 20 18 18 3 3 4 5 6 3 4 4 3 2 7 4 5 7 4 4 3 5 6 1 4 3 5 7 5 6 4 4 5 7 10 13 2 4 6 2 4 4 5 7
22 19 15 16 1 3 1 5 6 5 4 0 2 3 5 3 4 6 8 4 3 4 4 5 1 6 3 5 7 7 8 4 4 6 7 2 7 6 3 5 6 8 6 6 6
23 17 10 4 1 1 5 9 1 3 2 2 2 3 2 5 4 2 2 3 10 7 4 0 5 7 7 4 6 1 5 2 4 9 5 6 7 1 6 6 7 7 5 7 6
22 15 1 3 1 2 7 5 2 2 3 1 2 3 4 2 2 4 3 1 1 6 5 11 1 4 4 4 3 5 4 1 1 3 6 1 5 4 7 8 4 8 8 10 8
24 13 3 2 2 5 5 1 2 3 3 2 2 4 5 3 3 3 3 4 7 5 9 5 5 1 3 5 3 4 1 4 4 5 3 3 8 9 7 11 10 12 14 10 11
24 4 3 2 5 5 1 2 4 1 1 2 4 10 5 1 2 3 3 4 3 2 6 6 8 7 4 5 4 4 3 3 6 5 6 5 10 2 4 6 10 12 10 8 12
17 1 1 2 4 1 0 2 2 2 3 4 8 4 2 1 5 4 3 3 2 5 3 3 6 1 3 1 3 5 6 3 5 1 7 7 7 9 9 8 4 3 2 10 13
3 3 1 7 0 1 1 2 2 2 3 2 3 3 4 2 7 4 3 2 2 4 12 6 6 1 3 2 1 5 9 4 2 5 6 6 12 9 8 10 6 7 9 12 14
1 1 1 8 1 3 1 3 4 4 3 3 3 7 8 9 7 6 4 4 5 4 5 3 5 2 4 7 14 6 7 2 2 4 5 6 5 3 5 7 11 11 10 14 15
3 1 4 4 2 1 1 2 5 5 3 5 4 7 7 3 5 7 8 6 6 7 6 10 5 10 10 3 4 5 10 11 8 7 5 5 11 4 9 5 5 14 18 16 14
3 3 2 3 1 2 4 4 4 4 3 3 2 2 2 2 4 5 6 1 1 6 3 4 5 3 3 2 1 5 8 9 8 4 12 11 10 5 6 15 19 20 17 15 14
3 4 3 5 2 2 4 4 4 3 1 4 4 3 1 3 5 5 4 2 1 2 5 1 5 9 10 9 1 6 6 10 14 11 13 20 33 23 25 24 19 18 14 12 14
4 2 1 4 2 3 1 3 5 4 4 5 2 4 3 4 6 10 9 6 5 10 10 5 12 14 19 19 17 19 18 19 21 21 21 20 27 23 23 20 18 12 12 15 15
3 3 1 3 3 3 3 3 3 1 3 6 7 6 7 8 10 18 18 13 11 6 5 4 6 4 13 11 14 20 22 25 25 24 25 26 29 28 23 18 12 13 12 15 18
2 0 2 1 2 3 1 1 1 4 6 9 5 12 13 16 13 12 12 14 13 9 5 4 5 6 11 6 8 14 26 25 22 19 17 18 18 15 13 13 13 12 16 20 22
Wind_Direction
349 345 343 339 337 335 332 329 326 322 321 320 321 321 321 321 314 294 246 235 183 247 218 293 165 149 155 190 187 164 226 234 228 231 235 182 192 226 252 277 293 295 322 327 341
346 340 337 334 330 328 327 324 320 316 316 319 322 323 325 326 302 254 247 219 242 148 158 80 120 143 166 189 185 204 230 224 229 240 231 194 216 279 301 286 276 294 299 329 329
344 341 339 336 333 328 323 318 316 313 312 319 323 326 326 318 274 3 174 194 198 202 85 87 105 113 189 177 184 183 238 220 210 230 237 240 200 203 254 291 313 323 322 328 325
340 338 335 334 331 328 322 318 314 309 310 314 322 327 323 295 138 32 147 164 164 154 143 130 137 154 185 202 193 226 232 236 234 249 274 256 307 237 222 262 296 300 301 302 316
339 337 334 331 329 325 321 317 311 307 304 311 318 328 327 265 254 1 152 146 132 149 149 147 157 154 192 196 204 218 227 253 245 260 264 275 260 266 273 275 281 291 299 299 300
340 336 333 329 328 326 320 315 307 301 295 292 307 324 296 265 119 25 150 155 167 179 165 181 191 199 162 209 209 160 223 261 266 248 238 253 263 270 299 7 317 306 308 308 317
340 338 334 329 327 324 321 313 305 295 283 275 261 241 250 247 141 41 190 208 191 194 215 202 216 221 180 184 135 228 261 251 237 238 239 225 255 249 78 25 258 310 319 337 344
337 335 330 327 326 324 320 313 300 284 263 249 206 157 255 234 268 276 187 234 211 224 246 233 203 232 249 123 97 218 234 247 72 241 238 213 238 111 32 22 329 323 308 326 331
333 332 329 328 327 325 322 314 302 244 206 192 162 221 265 309 237 330 191 215 160 185 201 120 158 77 176 217 226 169 234 211 152 47 337 217 244 22 5 347 312 300 306 312 316
332 332 330 328 328 328 324 315 106 106 121 167 224 255 247 320 301 307 191 229 205 150 149 146 119 199 156 207 233 174 223 225 259 22 321 276 274 289 300 274 263 289 296 278 297
334 332 329 328 326 332 335 148 213 140 192 243 307 291 304 323 278 207 117 131 133 82 260 66 222 224 247 235 241 240 243 247 272 178 322 300 298 291 286 280 248 225 249 266 266
334 331 328 326 323 327 247 70 74 318 309 241 255 255 260 286 295 281 182 199 189 245 181 218 236 210 237 183 193 203 211 224 290 290 310 309 303 291 285 272 267 272 243 283 288
335 332 328 324 319 323 1 79 332 171 272 291 207 207 219 173 233 260 182 171 201 216 215 237 283 186 217 166 172 185 204 189 268 312 272 304 287 168 319 270 224 322 309 262 275
335 332 330 323 257 342 62 334 324 209 306 65 200 167 151 181 249 212 204 183 190 250 185 250 180 192 185 226 206 208 198 202 239 293 300 328 292 262 239 334 150 16 351 329 313
335 333 331 331 56 92 335 329 332 215 247 38 80 92 117 230 340 166 173 173 230 197 199 19 194 194 231 229 189 135 158 224 275 286 280 230 251 260 214 255 211 328 325 338 344
338 339 44 100 193 289 323 311 213 234 246 97 42 10 344 290 265 311 214 118 39 213 231 264 223 237 248 122 169 135 168 125 152 244 249 169 261 174 208 217 239 314 323 316 332
340 337 177 172 354 330 314 145 231 227 22 357 345 339 331 277 290 323 291 212 239 229 229 235 217 223 201 162 140 169 205 287 234 209 290 125 281 261 240 240 256 293 302 315 337
335 308 189 248 307 318 343 135 225 47 298 344 302 310 259 266 225 337 317 236 66 274 255 250 240 179 178 230 195 168 209 254 288 267 298 225 247 223 183 266 285 298 311 317 338
325 264 214 346 306 312 128 193 245 206 321 301 305 261 260 154 346 319 312 222 84 33 297 274 233 305 76 9 229 142 214 359 262 308 272 245 260 257 259 228 280 342 339 348 342
343 321 340 337 24 73 91 263 247 248 333 252 261 254 261 300 324 303 276 226 168 88 69 340 279 24 42 88 95 259 143 179 173 257 256 252 272 254 278 300 307 312 327 340 340
354 303 39 346 171 56 226 264 278 259 337 256 254 264 273 291 273 264 261 277 215 148 118 78 253 206 168 227 252 201 202 151 254 239 268 295 257 229 246 291 305 301 316 324 326
344 285 4 323 37 47 213 316 318 270 267 262 264 267 256 229 241 244 259 262 188 156 164 190 275 247 247 156 279 262 251 220 228 216 238 287 267 213 244 291 305 306 307 311 308
357 297 341 316 71 347 326 287 273 287 325 312 284 35 6 251 272 249 258 52 56 206 194 164 212 274 238 162 98 223 204 220 230 245 241 257 248 148 257 282 304 299 302 299 297
338 338 352 44 25 40 347 281 296 345 259 345 310 66 305 247 243 272 258 241 88 199 242 225 244 238 254 274 154 234 214 217 227 243 255 244 274 279 282 290 298 292 290 291 301
21 60 33 318 49 346 272 306 296 297 356 344 145 66 3 280 279 261 277 287 285 288 279 232 254 249 256 264 264 263 269 260 248 250 249 267 266 274 277 291 297 299 292 299 298
10 337 106 289 289 280 195 212 266 253 298 291 263 320 321 273 268 285 285 280 266 271 238 187 264 288 261 259 254 265 265 262 258 259 259 260 265 268 278 282 278 295 300 294 300
39 228 277 175 245 268 229 268 208 340 272 242 276 313 288 278 287 281 269 262 257 259 263 266 265 283 274 288 281 265 250 252 254 249 249 256 266 285 291 289 288 288 294 294 302